contact:dominique.lefevre@mio.osupytheas.fr, maurice.libes@osupytheas.fr, didier.mallarino@osupytheas.fr
Project:EMSO http://www.emso-fr.org/EMSO-France
Depth: 2436.0 m
Title:EMSO Ligure Ouest : Data MII capteur AQUADOPP
Date,Latitude,Longitude,X_East,Y_North,Z_Up,Amplitude_X,Amplitude_Y,Amplitude_Z,Batterie,SoundSpeed,Heading,Pitch,Roll,Pressure,TIS,Speed,Direction
, degrees North, degrees East, m.s-1, m.s-1,m.s-1, 1, 1, 1, Volt, m.s-1, degree, degree, degree, dbar, degree_C, m.s-1, degree
2023-08-06T00:04:03,42.805,6.029,-0.004,0.014,-0.009,105.0,104.0,102.0,13.3,1505.2,335.5,-0.8,1.8,2471.491,13.29,0.014,344.1
2023-08-06T00:07:03,42.805,6.029,-0.007,-0.01,-0.033,104.0,106.0,103.0,13.3,1505.2,321.0,-0.7,1.8,2471.486,13.29,0.012,215.0
2023-08-06T00:10:03,42.805,6.029,0.015,0.018,-0.013,105.0,104.0,102.0,13.3,1505.2,340.0,-0.8,1.8,2471.529,13.29,0.023,39.8
2023-08-06T00:13:03,42.805,6.029,-0.013,0.006,-0.037,104.0,104.0,103.0,13.3,1505.2,325.4,-0.8,1.8,2471.497,13.29,0.014,294.8
2023-08-06T00:16:03,42.805,6.029,-0.004,0.004,-0.018,106.0,104.0,103.0,13.4,1505.2,327.5,-0.7,1.8,2471.455,13.29,0.005,315.0
2023-08-06T00:19:03,42.805,6.029,0.024,-0.01,0.017,103.0,105.0,101.0,13.3,1505.2,327.3,-0.8,1.8,2471.469,13.29,0.026,112.6
2023-08-06T00:22:03,42.805,6.029,-0.003,-0.016,-0.006,103.0,104.0,104.0,13.4,1505.2,342.6,-0.8,1.8,2471.443,13.29,0.016,190.6
2023-08-06T00:25:03,42.805,6.029,-0.009,0.016,-0.044,105.0,103.0,103.0,13.4,1505.2,330.5,-0.8,1.8,2471.421,13.29,0.018,330.6
2023-08-06T00:28:03,42.805,6.029,-0.009,0.009,-0.008,104.0,104.0,102.0,13.3,1505.2,326.0,-0.8,1.8,2471.484,13.29,0.012,315.0
2023-08-06T00:31:03,42.805,6.029,-0.023,-0.021,-0.054,103.0,105.0,103.0,13.4,1505.2,341.5,-0.7,1.8,2471.435,13.29,0.031,227.6
2023-08-06T00:34:03,42.805,6.029,-0.006,0.0,0.001,103.0,105.0,103.0,13.3,1505.2,320.0,-0.7,1.8,2471.452,13.29,0.006,270.0
2023-08-06T00:37:03,42.805,6.029,-0.016,0.008,-0.018,104.0,104.0,102.0,13.3,1505.2,338.4,-0.7,1.8,2471.47,13.29,0.017,296.6
2023-08-06T00:40:03,42.805,6.029,0.013,-0.004,-0.022,105.0,105.0,102.0,13.3,1505.2,328.3,-0.8,1.8,2471.466,13.29,0.013,107.1
2023-08-06T00:43:03,42.805,6.029,-0.002,-0.005,-0.005,104.0,104.0,103.0,13.3,1505.2,326.3,-0.8,1.8,2471.45,13.29,0.005,201.8
2023-08-06T00:46:03,42.805,6.029,0.0,0.007,-0.002,104.0,104.0,103.0,13.4,1505.2,341.1,-0.8,1.8,2471.426,13.29,0.007,0.0
2023-08-06T00:49:03,42.805,6.029,0.0,-0.007,-0.029,105.0,105.0,102.0,13.4,1505.2,337.0,-0.8,1.8,2471.469,13.29,0.007,180.0
2023-08-06T00:52:03,42.805,6.029,0.009,-0.009,-0.026,104.0,105.0,102.0,13.4,1505.2,327.2,-0.8,1.8,2471.444,13.29,0.012,135.0
2023-08-06T00:55:03,42.805,6.029,-0.004,0.018,-0.039,104.0,103.0,103.0,13.3,1505.2,332.1,-0.8,1.8,2471.441,13.29,0.018,347.5
2023-08-06T00:58:03,42.805,6.029,0.004,0.022,-0.022,104.0,104.0,103.0,13.3,1505.2,349.1,-0.8,1.8,2471.412,13.29,0.022,10.3
2023-08-06T01:04:03,42.805,6.029,0.003,-0.008,-0.038,107.0,106.0,104.0,13.3,1505.2,339.5,-0.8,1.8,2471.493,13.29,0.008,159.4
2023-08-06T01:07:03,42.805,6.029,-0.006,0.01,-0.047,104.0,106.0,102.0,13.4,1505.2,345.4,-0.8,1.8,2471.443,13.29,0.011,329.0
2023-08-06T01:10:03,42.805,6.029,0.006,-0.002,0.006,104.0,105.0,102.0,13.3,1505.2,339.1,-0.8,1.8,2471.486,13.29,0.006,108.4
2023-08-06T01:13:03,42.805,6.029,-0.006,-0.009,-0.065,104.0,103.0,103.0,13.3,1505.2,335.7,-0.8,1.8,2471.432,13.29,0.01,213.7
2023-08-06T01:16:03,42.805,6.029,0.003,-0.003,-0.031,104.0,104.0,102.0,13.4,1505.2,335.1,-0.8,1.8,2471.41,13.29,0.004,135.0
2023-08-06T01:19:03,42.805,6.029,-0.011,0.026,0.01,106.0,105.0,102.0,13.3,1505.2,328.8,-0.8,1.8,2471.447,13.29,0.028,337.1
2023-08-06T01:22:02,42.805,6.029,-0.01,0.012,-0.035,104.0,104.0,101.0,13.4,1505.2,339.6,-0.8,1.8,2471.4,13.29,0.015,320.2
2023-08-06T01:25:03,42.805,6.029,-0.025,0.008,-0.028,104.0,105.0,101.0,13.4,1505.2,339.1,-0.8,1.8,2471.42,13.29,0.026,287.7
2023-08-06T01:28:03,42.805,6.029,0.01,-0.011,-0.037,104.0,104.0,102.0,13.3,1505.2,320.5,-0.8,1.8,2471.437,13.29,0.014,137.7
2023-08-06T01:31:03,42.805,6.029,-0.025,0.011,0.013,105.0,103.0,103.0,13.3,1505.2,332.8,-0.8,1.8,2471.38,13.29,0.027,293.7
2023-08-06T01:34:03,42.805,6.029,-0.012,0.016,-0.05,105.0,105.0,102.0,13.4,1505.2,336.1,-0.8,1.8,2471.4,13.29,0.02,323.1
2023-08-06T01:37:03,42.805,6.029,0.0,0.001,0.006,106.0,103.0,104.0,13.4,1505.2,343.5,-0.8,1.8,2471.416,13.29,0.001,0.0
2023-08-06T01:40:03,42.805,6.029,0.0,0.004,-0.006,105.0,103.0,102.0,13.4,1505.2,336.1,-0.8,1.8,2471.382,13.29,0.004,0.0
2023-08-06T01:43:03,42.805,6.029,0.012,-0.014,-0.026,105.0,103.0,102.0,13.4,1505.2,335.3,-0.7,1.8,2471.412,13.29,0.018,139.4
2023-08-06T01:46:03,42.805,6.029,-0.015,-0.021,-0.01,105.0,104.0,102.0,13.4,1505.2,320.3,-0.8,1.8,2471.381,13.29,0.025,215.5
2023-08-06T01:49:03,42.805,6.029,0.009,0.026,-0.029,104.0,104.0,103.0,13.4,1505.2,344.8,-0.7,1.8,2471.352,13.29,0.027,19.1
2023-08-06T01:52:03,42.805,6.029,-0.013,0.003,-0.035,106.0,104.0,102.0,13.3,1505.2,327.5,-0.8,1.8,2471.369,13.29,0.013,283.0
2023-08-06T01:55:03,42.805,6.029,0.005,0.0,-0.013,104.0,104.0,102.0,13.4,1505.2,321.1,-0.8,1.8,2471.39,13.29,0.005,90.0
2023-08-06T01:58:03,42.805,6.029,-0.009,0.003,-0.012,104.0,106.0,101.0,13.4,1505.2,348.2,-0.8,1.8,2471.373,13.29,0.009,288.4
2023-08-06T02:04:03,42.805,6.029,0.011,-0.012,-0.007,105.0,105.0,102.0,13.3,1505.2,321.0,-0.8,1.8,2471.426,13.29,0.016,137.5
2023-08-06T02:07:03,42.805,6.029,-0.019,-0.007,-0.029,104.0,105.0,101.0,13.4,1505.2,334.9,-0.8,1.8,2471.426,13.29,0.02,249.8
2023-08-06T02:10:03,42.805,6.029,-0.019,0.012,-0.01,104.0,103.0,103.0,13.3,1505.2,345.9,-0.8,1.8,2471.41,13.29,0.022,302.3
2023-08-06T02:13:03,42.805,6.029,-0.002,-0.016,-0.01,103.0,106.0,103.0,13.3,1505.2,331.7,-0.8,1.8,2471.415,13.29,0.016,187.1
2023-08-06T02:16:03,42.805,6.029,0.013,-0.015,-0.011,104.0,104.0,103.0,13.4,1505.2,332.8,-0.7,1.8,2471.379,13.29,0.019,139.1
2023-08-06T02:19:03,42.805,6.029,-0.007,0.01,-0.006,106.0,104.0,102.0,13.4,1505.2,342.9,-0.8,1.8,2471.397,13.29,0.012,325.0
2023-08-06T02:22:03,42.805,6.029,-0.017,0.0,-0.033,104.0,104.0,102.0,13.3,1505.2,321.6,-0.8,1.8,2471.429,13.29,0.017,270.0
2023-08-06T02:25:03,42.805,6.029,0.002,0.0,-0.035,104.0,105.0,101.0,13.4,1505.2,330.3,-0.8,1.8,2471.355,13.29,0.002,90.0
2023-08-06T02:28:03,42.805,6.029,-0.01,0.0,0.002,105.0,104.0,103.0,13.4,1505.2,338.6,-0.7,1.8,2471.389,13.29,0.01,270.0
2023-08-06T02:31:03,42.805,6.029,0.001,0.005,-0.003,105.0,104.0,102.0,13.4,1505.2,322.2,-0.7,1.8,2471.393,13.29,0.005,11.3
2023-08-06T02:34:03,42.805,6.029,-0.013,0.0,-0.017,105.0,103.0,102.0,13.4,1505.2,331.4,-0.8,1.8,2471.357,13.29,0.013,270.0
2023-08-06T02:37:03,42.805,6.029,-0.024,0.004,-0.042,105.0,105.0,102.0,13.4,1505.2,337.3,-0.8,1.9,2471.34,13.3,0.024,279.5
2023-08-06T02:40:03,42.805,6.029,-0.012,0.015,0.007,104.0,106.0,103.0,13.3,1505.2,332.5,-0.8,1.8,2471.336,13.29,0.019,321.3
2023-08-06T02:43:03,42.805,6.029,-0.009,0.005,-0.034,104.0,104.0,102.0,13.4,1505.2,343.6,-0.8,1.8,2471.383,13.3,0.01,299.1
2023-08-06T02:46:03,42.805,6.029,-0.003,0.016,-0.016,104.0,104.0,103.0,13.4,1505.2,334.5,-0.8,1.8,2471.346,13.3,0.016,349.4
2023-08-06T02:49:03,42.805,6.029,-0.008,-0.005,-0.019,105.0,104.0,103.0,13.3,1505.2,322.3,-0.8,1.8,2471.329,13.3,0.009,238.0
2023-08-06T02:52:03,42.805,6.029,-0.005,-0.007,-0.001,104.0,105.0,103.0,13.3,1505.2,321.0,-0.7,1.8,2471.324,13.29,0.008,215.5
2023-08-06T02:55:03,42.805,6.029,-0.006,0.011,-0.035,105.0,106.0,102.0,13.3,1505.2,336.4,-0.8,1.8,2471.358,13.29,0.012,331.4
2023-08-06T02:58:03,42.805,6.029,-0.002,-0.012,-0.037,105.0,103.0,104.0,13.4,1505.2,338.4,-0.8,1.8,2471.358,13.29,0.012,189.5
2023-08-06T03:04:03,42.805,6.029,-0.01,0.017,-0.018,105.0,103.0,102.0,13.4,1505.2,330.2,-0.8,1.8,2471.347,13.29,0.019,329.5
2023-08-06T03:07:03,42.805,6.029,-0.008,-0.003,-0.016,104.0,104.0,101.0,13.4,1505.2,345.4,-0.8,1.8,2471.392,13.29,0.008,249.4
2023-08-06T03:10:03,42.805,6.029,-0.007,0.014,-0.004,104.0,104.0,103.0,13.4,1505.2,336.8,-0.8,1.8,2471.335,13.29,0.015,333.4
2023-08-06T03:13:03,42.805,6.029,0.003,-0.005,-0.02,102.0,102.0,103.0,13.4,1505.2,322.2,-0.8,1.9,2471.349,13.29,0.005,149.0
2023-08-06T03:16:03,42.805,6.029,0.001,-0.01,0.005,103.0,104.0,102.0,13.3,1505.2,321.4,-0.8,1.8,2471.384,13.29,0.01,174.3
2023-08-06T03:19:03,42.805,6.029,0.032,-0.024,-0.007,105.0,104.0,101.0,13.3,1505.2,330.2,-0.7,1.9,2471.317,13.29,0.04,126.9
2023-08-06T03:22:03,42.805,6.029,0.013,-0.01,-0.044,105.0,103.0,102.0,13.4,1505.2,340.0,-0.8,1.8,2471.352,13.29,0.016,127.6
2023-08-06T03:25:03,42.805,6.029,-0.016,-0.002,-0.016,104.0,104.0,102.0,13.4,1505.2,324.8,-0.8,1.8,2471.313,13.3,0.016,262.9
2023-08-06T03:28:03,42.805,6.029,0.002,-0.003,-0.03,104.0,104.0,102.0,13.4,1505.2,328.6,-0.8,1.8,2471.297,13.3,0.003,146.3
2023-08-06T03:31:03,42.805,6.029,-0.003,0.004,-0.019,104.0,105.0,103.0,13.4,1505.2,349.3,-0.8,1.8,2471.33,13.29,0.005,323.1
2023-08-06T03:34:03,42.805,6.029,0.005,-0.009,-0.042,105.0,105.0,102.0,13.3,1505.2,330.1,-0.8,1.8,2471.331,13.29,0.01,150.9
2023-08-06T03:37:03,42.805,6.029,0.01,-0.007,-0.011,105.0,103.0,103.0,13.4,1505.2,323.3,-0.7,1.8,2471.317,13.29,0.012,125.0
2023-08-06T03:40:03,42.805,6.029,-0.005,0.002,-0.02,104.0,104.0,104.0,13.4,1505.2,331.3,-0.7,1.8,2471.324,13.29,0.005,291.8
2023-08-06T03:43:03,42.805,6.029,-0.001,-0.001,-0.015,105.0,103.0,103.0,13.4,1505.2,346.2,-0.8,1.8,2471.322,13.29,0.001,225.0
2023-08-06T03:46:03,42.805,6.029,-0.023,0.009,-0.005,105.0,104.0,103.0,13.4,1505.2,331.8,-0.8,1.8,2471.305,13.29,0.024,291.4
2023-08-06T03:49:03,42.805,6.029,0.014,0.007,-0.007,104.0,105.0,102.0,13.4,1505.2,327.3,-0.8,1.8,2471.319,13.29,0.015,63.4
2023-08-06T03:52:03,42.805,6.029,-0.004,0.026,0.0,105.0,104.0,102.0,13.4,1505.2,320.7,-0.8,1.8,2471.27,13.29,0.026,351.3
2023-08-06T03:55:03,42.805,6.029,0.003,0.003,-0.01,104.0,105.0,102.0,13.4,1505.2,329.2,-0.8,1.8,2471.288,13.29,0.004,45.0
2023-08-06T03:58:03,42.805,6.029,0.002,-0.009,-0.028,105.0,105.0,103.0,13.4,1505.2,347.4,-0.8,1.8,2471.3,13.29,0.009,167.5
2023-08-06T04:04:03,42.805,6.029,0.008,0.0,-0.029,105.0,104.0,103.0,13.4,1505.2,320.5,-0.8,1.8,2471.327,13.29,0.008,90.0
2023-08-06T04:07:03,42.805,6.029,0.0,0.003,-0.044,105.0,104.0,101.0,13.3,1505.2,341.5,-0.8,1.8,2471.313,13.29,0.003,0.0
2023-08-06T04:10:03,42.805,6.029,0.003,0.0,-0.005,105.0,104.0,103.0,13.4,1505.2,325.0,-0.8,1.8,2471.314,13.29,0.003,90.0
2023-08-06T04:13:03,42.805,6.029,-0.003,-0.011,-0.032,103.0,105.0,102.0,13.4,1505.2,330.3,-0.8,1.8,2471.332,13.29,0.011,195.3
2023-08-06T04:16:03,42.805,6.029,-0.003,-0.014,-0.041,105.0,103.0,102.0,13.3,1505.2,337.8,-0.8,1.8,2471.293,13.29,0.014,192.1
2023-08-06T04:19:03,42.805,6.029,-0.007,-0.013,-0.05,105.0,102.0,103.0,13.4,1505.2,328.8,-0.7,1.8,2471.295,13.29,0.014,208.3
2023-08-06T04:22:03,42.805,6.029,-0.002,-0.001,-0.017,105.0,104.0,103.0,13.3,1505.2,340.5,-0.8,1.8,2471.324,13.29,0.002,243.4
2023-08-06T04:25:03,42.805,6.029,-0.009,-0.01,-0.051,105.0,103.0,101.0,13.3,1505.2,319.6,-0.8,1.8,2471.286,13.29,0.013,222.0
2023-08-06T04:28:03,42.805,6.029,0.016,-0.006,-0.037,103.0,103.0,102.0,13.4,1505.2,325.7,-0.8,1.8,2471.268,13.29,0.017,110.6
2023-08-06T04:31:03,42.805,6.029,-0.005,-0.009,-0.017,105.0,104.0,100.0,13.4,1505.2,331.9,-0.7,1.8,2471.278,13.29,0.01,209.1
2023-08-06T04:34:03,42.805,6.029,-0.007,0.001,-0.007,104.0,105.0,102.0,13.3,1505.2,347.3,-0.8,1.8,2471.285,13.29,0.007,278.1
2023-08-06T04:37:03,42.805,6.029,-0.002,-0.001,-0.034,102.0,103.0,102.0,13.3,1505.2,331.6,-0.7,1.8,2471.272,13.29,0.002,243.4
2023-08-06T04:40:03,42.805,6.029,0.0,0.0,-0.042,103.0,103.0,102.0,13.4,1505.2,347.0,-0.8,1.8,2471.306,13.29,0.0,0.0
2023-08-06T04:43:03,42.805,6.029,0.004,-0.021,0.003,104.0,104.0,102.0,13.3,1505.2,343.2,-0.8,1.8,2471.287,13.29,0.021,169.2
2023-08-06T04:46:03,42.805,6.029,-0.009,0.014,-0.012,103.0,104.0,102.0,13.4,1505.2,341.5,-0.8,1.8,2471.263,13.29,0.016,327.3
2023-08-06T04:49:03,42.805,6.029,0.01,0.012,-0.022,104.0,104.0,102.0,13.3,1505.2,333.8,-0.8,1.8,2471.235,13.29,0.015,39.8
2023-08-06T04:52:03,42.805,6.029,0.02,-0.016,-0.023,105.0,104.0,102.0,13.4,1505.2,326.0,-0.8,1.8,2471.233,13.29,0.025,128.7
2023-08-06T04:55:03,42.805,6.029,-0.018,-0.001,-0.022,105.0,103.0,102.0,13.4,1505.2,340.2,-0.8,1.8,2471.247,13.29,0.018,266.8
2023-08-06T04:58:03,42.805,6.029,-0.006,0.001,-0.034,104.0,103.0,101.0,13.3,1505.2,325.7,-0.8,1.8,2471.273,13.29,0.006,279.5
2023-08-06T05:04:03,42.805,6.029,-0.002,-0.006,-0.048,104.0,103.0,102.0,13.4,1505.2,329.0,-0.8,1.8,2471.362,13.29,0.006,198.4
2023-08-06T05:07:03,42.805,6.029,0.003,-0.001,-0.004,103.0,103.0,105.0,13.4,1505.2,327.8,-0.8,1.8,2471.316,13.29,0.003,108.4
2023-08-06T05:10:03,42.805,6.029,0.007,-0.016,-0.027,103.0,103.0,103.0,13.4,1505.2,349.7,-0.8,1.8,2471.29,13.29,0.017,156.4
2023-08-06T05:13:03,42.805,6.029,0.023,-0.008,-0.043,104.0,102.0,102.0,13.4,1505.2,341.2,-0.8,1.8,2471.315,13.29,0.024,109.2
2023-08-06T05:16:03,42.805,6.029,-0.009,0.002,-0.039,104.0,103.0,102.0,13.4,1505.2,332.5,-0.8,1.8,2471.288,13.29,0.009,282.5
2023-08-06T05:19:03,42.805,6.029,-0.001,0.0,-0.032,104.0,106.0,101.0,13.4,1505.2,329.3,-0.7,1.8,2471.285,13.29,0.001,270.0
2023-08-06T05:22:03,42.805,6.029,0.009,-0.007,-0.01,104.0,102.0,103.0,13.4,1505.2,335.9,-0.8,1.8,2471.281,13.29,0.011,127.9
2023-08-06T05:25:03,42.805,6.029,-0.001,-0.023,-0.042,104.0,103.0,102.0,13.3,1505.2,328.3,-0.8,1.8,2471.281,13.29,0.023,182.5
2023-08-06T05:28:03,42.805,6.029,-0.001,-0.01,-0.014,104.0,104.0,102.0,13.4,1505.2,346.2,-0.8,1.8,2471.288,13.29,0.01,185.7
2023-08-06T05:31:03,42.805,6.029,0.013,0.004,0.0,103.0,104.0,102.0,13.4,1505.2,321.0,-0.8,1.8,2471.316,13.29,0.013,72.9
2023-08-06T05:34:03,42.805,6.029,0.011,-0.007,-0.036,103.0,102.0,102.0,13.4,1505.2,327.8,-0.8,1.8,2471.3,13.29,0.013,122.5
2023-08-06T05:37:03,42.805,6.029,0.004,-0.033,-0.029,104.0,104.0,102.0,13.4,1505.2,343.2,-0.7,1.8,2471.275,13.29,0.033,173.1
2023-08-06T05:40:03,42.805,6.029,-0.003,-0.001,-0.04,102.0,103.0,101.0,13.4,1505.2,325.8,-0.8,1.8,2471.271,13.29,0.003,251.6
2023-08-06T05:43:03,42.805,6.029,0.0,-0.002,-0.029,102.0,103.0,102.0,13.3,1505.2,333.9,-0.8,1.8,2471.286,13.29,0.002,180.0
2023-08-06T05:46:03,42.805,6.029,0.002,-0.004,-0.017,103.0,103.0,102.0,13.4,1505.2,334.3,-0.7,1.8,2471.288,13.29,0.004,153.4
2023-08-06T05:49:03,42.805,6.029,0.0,-0.027,-0.063,102.0,104.0,103.0,13.4,1505.2,351.7,-0.8,1.8,2471.296,13.29,0.026,180.0
2023-08-06T05:52:03,42.805,6.029,-0.001,0.005,-0.007,104.0,103.0,102.0,13.3,1505.2,345.9,-0.7,1.8,2471.27,13.29,0.005,348.7
2023-08-06T05:55:03,42.805,6.029,0.033,-0.01,-0.022,104.0,104.0,102.0,13.4,1505.2,349.7,-0.8,1.8,2471.269,13.29,0.034,106.9
2023-08-06T05:58:03,42.805,6.029,-0.01,-0.022,-0.028,103.0,102.0,102.0,13.4,1505.2,322.2,-0.8,1.8,2471.282,13.29,0.024,204.4
2023-08-06T06:04:03,42.805,6.029,0.01,-0.029,-0.012,104.0,104.0,102.0,13.4,1505.2,325.9,-0.7,1.8,2471.34,13.29,0.03,161.0
2023-08-06T06:07:03,42.805,6.029,0.0,-0.01,-0.019,104.0,103.0,102.0,13.4,1505.2,333.4,-0.8,1.8,2471.355,13.29,0.01,180.0
2023-08-06T06:10:03,42.805,6.029,0.022,-0.029,-0.014,104.0,103.0,102.0,13.4,1505.2,347.4,-0.7,1.8,2471.328,13.29,0.036,142.8
2023-08-06T06:13:03,42.805,6.029,-0.001,-0.004,-0.019,104.0,102.0,102.0,13.4,1505.2,339.0,-0.8,1.8,2471.316,13.29,0.004,194.0
2023-08-06T06:16:03,42.805,6.029,-0.007,-0.017,-0.05,104.0,104.0,102.0,13.3,1505.2,318.3,-0.8,1.8,2471.263,13.29,0.018,202.4
2023-08-06T06:19:03,42.805,6.029,-0.022,0.0,-0.023,103.0,104.0,102.0,13.3,1505.2,329.3,-0.8,1.8,2471.294,13.29,0.022,270.0
2023-08-06T06:22:03,42.805,6.029,0.0,0.014,-0.045,103.0,104.0,101.0,13.4,1505.2,349.1,-0.7,1.8,2471.296,13.29,0.014,0.0
2023-08-06T06:25:03,42.805,6.029,-0.012,-0.004,-0.029,104.0,103.0,102.0,13.4,1505.2,332.1,-0.7,1.8,2471.302,13.29,0.012,251.6
2023-08-06T06:28:03,42.805,6.029,0.0,-0.015,-0.016,103.0,104.0,103.0,13.4,1505.2,342.2,-0.8,1.9,2471.315,13.29,0.015,180.0
2023-08-06T06:31:03,42.805,6.029,-0.015,-0.007,-0.025,105.0,102.0,102.0,13.4,1505.2,338.2,-0.8,1.8,2471.326,13.29,0.016,245.0
2023-08-06T06:34:03,42.805,6.029,-0.003,-0.023,-0.057,104.0,104.0,101.0,13.4,1505.2,338.2,-0.8,1.8,2471.282,13.29,0.023,187.4
2023-08-06T06:37:03,42.805,6.029,0.019,-0.043,-0.021,105.0,103.0,102.0,13.4,1505.2,347.9,-0.7,1.8,2471.317,13.29,0.047,156.2
2023-08-06T06:40:03,42.805,6.029,0.0,-0.013,-0.016,104.0,104.0,102.0,13.4,1505.2,322.9,-0.8,1.8,2471.315,13.29,0.013,180.0
2023-08-06T06:43:03,42.805,6.029,0.015,-0.014,-0.056,104.0,104.0,102.0,13.3,1505.2,325.9,-0.8,1.9,2471.293,13.29,0.02,133.0
2023-08-06T06:46:03,42.805,6.029,-0.002,-0.014,-0.061,104.0,104.0,102.0,13.4,1505.2,343.6,-0.7,1.8,2471.304,13.29,0.014,188.1
2023-08-06T06:49:03,42.805,6.029,-0.003,0.0,0.03,103.0,103.0,103.0,13.4,1505.2,335.6,-0.8,1.8,2471.314,13.29,0.003,270.0
2023-08-06T06:52:03,42.805,6.029,0.01,-0.014,-0.027,103.0,103.0,102.0,13.4,1505.2,334.8,-0.7,1.8,2471.318,13.29,0.017,144.5
2023-08-06T06:55:03,42.805,6.029,-0.014,-0.003,-0.042,105.0,104.0,101.0,13.4,1505.2,339.1,-0.7,1.8,2471.32,13.29,0.014,257.9
2023-08-06T06:58:03,42.805,6.029,-0.002,-0.006,-0.034,103.0,103.0,102.0,13.3,1505.2,343.1,-0.8,1.8,2471.297,13.29,0.006,198.4
2023-08-06T07:04:03,42.805,6.029,0.008,-0.013,-0.006,104.0,102.0,103.0,13.3,1505.2,335.2,-0.7,1.8,2471.319,13.28,0.015,148.4
2023-08-06T07:07:03,42.805,6.029,0.016,-0.021,-0.045,104.0,102.0,103.0,13.4,1505.2,327.7,-0.7,1.8,2471.372,13.29,0.026,142.7
2023-08-06T07:10:03,42.805,6.029,-0.005,-0.013,-0.041,103.0,103.0,102.0,13.4,1505.2,346.9,-0.8,1.8,2471.36,13.29,0.013,201.0
2023-08-06T07:13:03,42.805,6.029,0.014,0.015,-0.008,104.0,103.0,102.0,13.3,1505.2,317.1,-0.8,1.8,2471.343,13.29,0.02,43.0
2023-08-06T07:16:03,42.805,6.029,-0.002,-0.025,-0.036,103.0,103.0,101.0,13.4,1505.2,336.2,-0.8,1.8,2471.353,13.29,0.025,184.6
2023-08-06T07:19:03,42.805,6.029,-0.012,-0.019,-0.035,104.0,103.0,102.0,13.3,1505.2,321.9,-0.7,1.8,2471.373,13.29,0.022,212.3
2023-08-06T07:22:03,42.805,6.029,0.0,-0.008,-0.053,101.0,104.0,103.0,13.3,1505.2,328.3,-0.8,1.8,2471.35,13.29,0.008,180.0
2023-08-06T07:25:03,42.805,6.029,0.001,-0.022,-0.02,103.0,104.0,103.0,13.4,1505.2,344.3,-0.8,1.8,2471.363,13.29,0.022,177.4
2023-08-06T07:28:03,42.805,6.029,0.004,-0.003,0.017,103.0,103.0,102.0,13.4,1505.2,331.6,-0.8,1.8,2471.367,13.29,0.005,126.9
2023-08-06T07:31:03,42.805,6.029,-0.004,0.009,-0.051,104.0,104.0,101.0,13.3,1505.2,331.9,-0.7,1.8,2471.373,13.29,0.009,336.0
2023-08-06T07:34:03,42.805,6.029,0.01,-0.006,-0.009,103.0,103.0,102.0,13.4,1505.2,346.2,-0.8,1.8,2471.37,13.29,0.011,121.0
2023-08-06T07:37:03,42.805,6.029,0.002,-0.013,-0.011,104.0,103.0,102.0,13.4,1505.2,321.6,-0.7,1.8,2471.337,13.29,0.013,171.3
2023-08-06T07:40:03,42.805,6.029,0.018,-0.021,-0.009,104.0,103.0,102.0,13.4,1505.2,340.8,-0.8,1.8,2471.37,13.29,0.027,139.4
2023-08-06T07:43:03,42.805,6.029,0.02,-0.013,-0.016,104.0,103.0,102.0,13.4,1505.2,331.7,-0.8,1.8,2471.366,13.29,0.023,123.0
2023-08-06T07:46:03,42.805,6.029,0.003,0.0,-0.03,104.0,104.0,102.0,13.4,1505.2,319.6,-0.7,1.8,2471.342,13.29,0.003,90.0
2023-08-06T07:49:03,42.805,6.029,0.026,-0.026,0.013,103.0,103.0,101.0,13.4,1505.2,332.0,-0.7,1.8,2471.375,13.29,0.036,135.0
2023-08-06T07:52:03,42.805,6.029,-0.007,-0.02,-0.024,104.0,104.0,101.0,13.4,1505.2,351.2,-0.7,1.8,2471.378,13.29,0.021,199.3
2023-08-06T07:55:03,42.805,6.029,-0.003,-0.013,-0.003,102.0,104.0,102.0,13.3,1505.2,322.2,-0.8,1.8,2471.382,13.29,0.013,193.0
2023-08-06T07:58:03,42.805,6.029,0.017,-0.031,-0.017,103.0,103.0,102.0,13.4,1505.2,336.8,-0.8,1.8,2471.373,13.29,0.035,151.3
2023-08-06T08:04:03,42.805,6.029,0.011,0.0,-0.005,104.0,103.0,101.0,13.4,1505.2,339.3,-0.8,1.8,2471.416,13.28,0.011,90.0
2023-08-06T08:07:03,42.805,6.029,0.0,-0.013,-0.031,104.0,103.0,103.0,13.3,1505.2,339.8,-0.7,1.9,2471.454,13.29,0.013,180.0
2023-08-06T08:10:03,42.805,6.029,0.008,0.023,-0.021,103.0,103.0,102.0,13.3,1505.2,341.5,-0.8,1.8,2471.433,13.29,0.024,19.2
2023-08-06T08:13:03,42.805,6.029,0.011,-0.012,-0.036,103.0,103.0,102.0,13.4,1505.2,343.0,-0.7,1.8,2471.407,13.29,0.016,137.5
2023-08-06T08:16:03,42.805,6.029,0.013,-0.015,-0.037,104.0,104.0,101.0,13.4,1505.2,329.0,-0.8,1.8,2471.392,13.29,0.019,139.1
2023-08-06T08:19:03,42.805,6.029,-0.009,-0.01,-0.057,103.0,103.0,101.0,13.4,1505.2,324.4,-0.7,1.8,2471.416,13.29,0.013,222.0
2023-08-06T08:22:03,42.805,6.029,0.0,-0.008,-0.012,104.0,102.0,102.0,13.3,1505.2,339.5,-0.8,1.8,2471.405,13.29,0.008,180.0
2023-08-06T08:25:03,42.805,6.029,0.005,-0.011,-0.052,103.0,102.0,101.0,13.4,1505.2,325.7,-0.8,1.8,2471.384,13.29,0.012,155.6
2023-08-06T08:28:03,42.805,6.029,0.006,-0.003,-0.032,103.0,103.0,101.0,13.3,1505.2,334.7,-0.8,1.8,2471.425,13.29,0.006,116.6
2023-08-06T08:31:03,42.805,6.029,0.014,-0.014,-0.032,103.0,103.0,102.0,13.3,1505.2,331.6,-0.8,1.8,2471.374,13.29,0.019,135.0
2023-08-06T08:34:03,42.805,6.029,-0.006,0.0,-0.03,103.0,103.0,101.0,13.3,1505.2,347.9,-0.8,1.8,2471.393,13.29,0.006,270.0
2023-08-06T08:37:03,42.805,6.029,-0.015,-0.008,-0.044,104.0,103.0,101.0,13.4,1505.2,333.9,-0.8,1.8,2471.371,13.29,0.017,241.9
2023-08-06T08:40:03,42.805,6.029,0.016,-0.014,0.008,103.0,103.0,102.0,13.3,1505.2,348.6,-0.8,1.8,2471.392,13.29,0.021,131.2
2023-08-06T08:43:03,42.805,6.029,0.0,-0.025,-0.047,103.0,103.0,102.0,13.3,1505.2,326.8,-0.7,1.8,2471.39,13.29,0.025,180.0
2023-08-06T08:46:03,42.805,6.029,0.028,-0.018,-0.033,103.0,104.0,102.0,13.4,1505.2,324.0,-0.8,1.8,2471.43,13.29,0.033,122.7
2023-08-06T08:49:03,42.805,6.029,0.014,-0.002,-0.007,104.0,103.0,102.0,13.4,1505.2,349.7,-0.8,1.8,2471.409,13.29,0.014,98.1
2023-08-06T08:52:03,42.805,6.029,0.001,-0.012,0.011,103.0,104.0,101.0,13.4,1505.2,325.1,-0.8,1.8,2471.419,13.29,0.012,175.2
2023-08-06T08:55:03,42.805,6.029,-0.007,-0.021,-0.038,103.0,104.0,102.0,13.4,1505.2,352.8,-0.8,1.8,2471.404,13.29,0.022,198.4
2023-08-06T08:58:03,42.805,6.029,0.0,-0.013,-0.039,103.0,102.0,101.0,13.4,1505.2,347.4,-0.8,1.8,2471.414,13.29,0.013,180.0
2023-08-06T09:04:03,42.805,6.029,0.016,-0.019,-0.049,104.0,103.0,102.0,13.4,1505.2,349.1,-0.7,1.8,2471.498,13.28,0.024,139.9
2023-08-06T09:07:03,42.805,6.029,-0.025,0.003,-0.028,103.0,103.0,103.0,13.4,1505.2,335.2,-0.8,1.8,2471.436,13.29,0.025,276.8
2023-08-06T09:10:03,42.805,6.029,0.017,-0.022,-0.004,103.0,103.0,101.0,13.3,1505.2,335.1,-0.8,1.8,2471.483,13.29,0.027,142.3
2023-08-06T09:13:03,42.805,6.029,0.001,-0.016,-0.033,105.0,104.0,101.0,13.4,1505.2,340.7,-0.8,1.8,2471.456,13.29,0.016,176.4
2023-08-06T09:16:03,42.805,6.029,0.009,-0.019,-0.021,104.0,103.0,101.0,13.4,1505.2,329.5,-0.8,1.8,2471.432,13.29,0.021,154.7
2023-08-06T09:19:03,42.805,6.029,0.003,-0.02,-0.024,102.0,104.0,102.0,13.4,1505.2,333.8,-0.8,1.9,2471.472,13.29,0.02,171.5
2023-08-06T09:22:03,42.805,6.029,0.0,-0.01,-0.002,103.0,103.0,102.0,13.4,1505.2,326.9,-0.8,1.8,2471.431,13.29,0.01,180.0
2023-08-06T09:25:03,42.805,6.029,0.02,-0.027,-0.033,104.0,103.0,102.0,13.4,1505.2,328.8,-0.8,1.8,2471.439,13.29,0.033,143.5
2023-08-06T09:28:03,42.805,6.029,0.004,-0.009,-0.043,104.0,104.0,102.0,13.4,1505.2,331.2,-0.8,1.8,2471.457,13.29,0.009,156.0
2023-08-06T09:31:03,42.805,6.029,-0.004,-0.038,-0.064,105.0,102.0,102.0,13.4,1505.2,331.1,-0.7,1.8,2471.419,13.29,0.038,186.0
2023-08-06T09:34:03,42.805,6.029,-0.005,0.013,-0.036,104.0,103.0,102.0,13.3,1505.2,329.0,-0.7,1.8,2471.438,13.29,0.013,339.0
2023-08-06T09:37:03,42.805,6.029,-0.005,0.0,-0.05,104.0,105.0,102.0,13.4,1505.2,337.4,-0.8,1.8,2471.438,13.29,0.005,270.0
2023-08-06T09:40:03,42.805,6.029,0.006,-0.017,-0.003,104.0,103.0,101.0,13.4,1505.2,325.7,-0.8,1.8,2471.403,13.29,0.018,160.6
2023-08-06T09:43:03,42.805,6.029,0.002,-0.003,-0.002,104.0,103.0,103.0,13.4,1505.2,333.4,-0.8,1.8,2471.432,13.29,0.003,146.3
2023-08-06T09:46:03,42.805,6.029,-0.004,-0.019,-0.04,104.0,104.0,102.0,13.4,1505.2,330.3,-0.8,1.8,2471.442,13.29,0.019,191.9
2023-08-06T09:49:03,42.805,6.029,-0.011,-0.007,-0.026,104.0,103.0,102.0,13.3,1505.2,350.5,-0.8,1.8,2471.426,13.29,0.013,237.5
2023-08-06T09:52:03,42.805,6.029,0.003,-0.01,0.012,103.0,103.0,102.0,13.4,1505.2,324.5,-0.8,1.8,2471.441,13.29,0.01,163.3
2023-08-06T09:55:03,42.805,6.029,-0.012,-0.019,-0.034,104.0,103.0,102.0,13.4,1505.2,321.1,-0.8,1.8,2471.454,13.29,0.022,212.3